DW7281 Weather Reports


Display with metric or nautical units.
time (UTC)temp
F
wind
direction
speed
MPH
gust
MPH
rain 1hr
in
rain 24hr
in
rain mn
in
humidity
%
barometer
mb
20260505094549 67 0 0.0 0.0 0.00 0.00 0.00 78 1022.1
20260505093048 67 0 0.0 0.0 0.00 0.00 0.00 77 1021.9
20260505091610 67 0 0.0 0.0 0.00 0.00 0.00 76 1022.0
20260505090104 67 0 0.0 0.0 0.00 0.00 0.00 75 1021.8
20260505084607 67 0 0.0 0.0 0.00 0.00 0.00 75 1021.6
20260505083104 68 0 0.0 0.0 0.00 0.00 0.00 74 1021.5
20260505081556 68 0 0.0 0.0 0.00 0.00 0.00 73 1021.2
20260505080059 68 0 0.0 0.0 0.00 0.00 0.00 72 1020.8
20260505074550 68 0 0.0 0.0 0.00 0.00 0.00 70 1020.7
20260505073055 69 0 0.0 0.0 0.00 0.00 0.00 66 1020.5
20260505071549 69 0 0.0 0.0 0.00 0.00 0.00 66 1020.5
20260505070054 70 0 0.0 0.0 0.00 0.00 0.00 64 1020.4
20260505064550 70 0 0.0 0.0 0.00 0.00 0.00 62 1020.3
20260505063052 71 0 0.0 0.0 0.00 0.00 0.00 62 1020.2
20260505061547 71 0 0.0 0.0 0.00 0.00 0.00 61 1020.1
20260505060100 71 0 0.0 0.0 0.00 0.00 0.00 62 1020.1
20260505054552 71 0 0.0 0.0 0.00 0.00 0.00 64 1020.0
20260505053050 71 0 0.0 0.0 0.00 0.00 0.00 65 1019.9
20260505051550 71 0 0.0 1.0 0.00 0.00 0.00 65 1020.0
20260505041553 72 0 0.0 0.0 0.00 0.00 0.00 66 1019.7
20260505040056 73 0 0.0 0.0 0.00 0.00 0.00 66 1019.9
20260505034545 73 0 0.0 1.0 0.00 0.00 0.00 63 1019.8
20260505033048 74 0 0.0 3.0 0.00 0.00 0.00 63 1020.1
20260505031544 73 0 0.0 1.0 0.00 0.00 0.00 63 1019.8
20260505030104 73 0 0.0 1.0 0.00 0.00 0.00 63 1020.1
20260505024553 75 0 0.0 1.0 0.00 0.00 0.00 59 1020.2
20260505023051 76 92 0.0 6.0 0.00 0.00 0.00 57 1020.2
20260505021552 74 0 0.0 1.0 0.00 0.00 0.00 59 1020.4
20260505020049 72 0 0.0 15.0 0.00 0.00 0.00 64 1020.8
20260505014607 72 0 0.0 0.0 0.00 0.00 0.00 64 1021.0
20260505013054 73 0 0.0 0.0 0.00 0.00 0.00 64 1021.3
20260505011555 73 0 0.0 0.0 0.00 0.00 0.00 65 1021.6
20260505010058 73 0 0.0 0.0 0.00 0.00 0.00 65 1021.8
20260505004553 71 0 0.0 0.0 0.00 0.00 0.00 68 1022.0
20260505003056 71 0 0.0 0.0 0.00 0.00 0.00 69 1022.4
20260505001555 71 0 0.0 0.0 0.00 0.00 0.00 69 1022.7
20260505000048 70 0 0.0 0.0 0.00 0.00 0.00 72 1022.6
20260504234551 67 0 0.0 0.0 0.00 0.00 0.00 78 1022.8
20260504233047 66 0 0.0 0.0 0.00 0.00 0.00 81 1022.8
20260504231548 63 0 0.0 0.0 0.00 0.00 0.00 86 1022.8
20260504230134 62 0 0.0 0.0 0.00 0.00 0.00 88 1022.7
20260504224543 61 0 0.0 2.0 0.00 0.00 0.00 90 1022.6
20260504223058 61 0 0.0 3.0 0.00 0.00 0.00 92 1022.5
20260504221551 60 349 0.0 4.0 0.00 0.00 0.00 93 1022.5
20260504220050 59 0 0.0 0.0 0.00 0.00 0.00 93 1022.4
20260504214542 59 0 0.0 5.0 0.00 0.00 0.00 93 1022.4
20260504213047 59 0 0.0 5.0 0.00 0.00 0.00 93 1022.2
20260504211620 59 0 1.0 4.0 0.00 0.00 0.00 93 1022.3
20260504210049 59 0 0.0 5.0 0.00 0.00 0.00 92 1022.0
20260504204548 59 0 0.0 0.0 0.00 0.00 0.00 92 1021.9
20260504203050 59 0 0.0 0.0 0.00 0.00 0.00 92 1021.7
20260504201547 59 0 0.0 0.0 0.00 0.00 0.00 92 1021.7
20260504200045 59 0 0.0 5.0 0.00 0.00 0.00 92 1021.6
20260504194550 59 0 1.0 4.0 0.00 0.00 0.00 92 1021.5
20260504193049 59 0 0.0 0.0 0.00 0.00 0.00 92 1021.2
20260504191551 59 0 0.0 3.0 0.00 0.00 0.00 92 1021.1
20260504190059 60 39 2.0 8.0 0.00 0.00 0.00 92 1020.9
20260504184553 60 17 2.0 7.0 0.00 0.00 0.00 92 1020.7
20260504183047 60 0 0.0 7.0 0.00 0.00 0.00 92 1020.7
20260504181559 60 0 0.0 5.0 0.00 0.00 0.00 92 1020.5
20260504180053 60 0 0.0 5.0 0.00 0.00 0.00 91 1020.7
20260504174548 60 0 1.0 7.0 0.00 0.00 0.00 91 1020.7
20260504173055 60 0 1.0 7.0 0.00 0.00 0.00 92 1020.8
20260504171548 60 33 0.0 4.0 0.00 0.00 0.00 91 1020.6